Barking Sands, HI

2:11 PM HST on July 24, 2017 (GMT -1000)
Barking Sands PMRF

Weather History for PHBK - October, 2013

Change the Weather History Date:

Sunday, October 27, 2013

  Actual Average Record
Temperature  
Mean Temperature 83 °F -  
Max Temperature 84 °F 86 °F 90 °F (1967)
Min Temperature 81 °F 66 °F 62 °F (1965)
Cooling Degree Days 18    
Growing Degree Days 33 (Base 50)    
Moisture  
Dew Point 75 °F    
Average Humidity 77    
Maximum Humidity 82    
Minimum Humidity 72    
Precipitation  
Precipitation 0.02 in - - ()
Sea Level Pressure  
Sea Level Pressure 29.99 in    
Wind  
Wind Speed 6 mph (SSE)    
Max Wind Speed 10 mph    
Max Gust Speed -    
Visibility 10 miles    
Events Rain    
Averages and records for this station are not official NWS values.
T = Trace of Precipitation, MM = Missing Value Source: NWS Daily Summary

Daily Weather History Graph

Daily Weather History Graph

Search for Another Location

Airport or City:

Trip Planner

Search our weather history database for the weather conditions in past years. The results will help you decide how hot, cold, wet, or windy it might be!

Date:

Astronomy

Oct. 27, 2013 Rise Set
Actual Time 6:40 AM HST 6:04 PM HST
Civil Twilight 6:17 AM HST 6:27 PM HST
Nautical Twilight 5:51 AM HST 6:54 PM HST
Astronomical Twilight 5:25 AM HST 7:20 PM HST
Moon 12:35 AM HST (10/27) 1:37 PM HST (10/27)
Length of Visible Light 12h 09m
Length of Day
11h 24m
Last Quarter, 41% of the Moon is Illuminated
Oct 27
Last Quarter
Nov 3
New
Nov 9
First Quarter
Nov 17
Full
Nov 25
Last Quarter

Hourly Weather History & Observations

Time (HST) Temp. Heat Index Dew Point Humidity Pressure Visibility Wind Dir Wind Speed Gust Speed Precip Events Conditions
12:56 AM - - - N/A% 29.99 in 10.0 mi SE 4.6 mph - 0.00 in   Partly Cloudy
1:56 AM - - - N/A% 29.98 in 10.0 mi SE 4.6 mph - N/A   Scattered Clouds
2:07 AM - - - N/A% 29.97 in 10.0 mi SSE 4.6 mph - 0.00 in Rain Light Rain
2:20 AM - - - N/A% 29.97 in 10.0 mi SE 10.4 mph - 0.00 in   Mostly Cloudy
2:56 AM - - - N/A% 29.96 in 10.0 mi SE 6.9 mph - 0.00 in   Partly Cloudy
3:56 AM - - - N/A% 29.96 in 10.0 mi SE 4.6 mph - N/A   Clear
4:56 AM - - - N/A% 29.95 in 10.0 mi SE 6.9 mph - 0.01 in   Partly Cloudy
5:56 AM - - - N/A% 29.97 in 10.0 mi SE 6.9 mph - N/A   Clear
6:56 AM - - - N/A% 29.98 in 10.0 mi SE 4.6 mph - N/A   Partly Cloudy
7:56 AM - - - N/A% 30.01 in 10.0 mi ESE 5.8 mph - N/A   Clear
8:56 AM - - - N/A% 30.02 in 10.0 mi SE 6.9 mph - N/A   Overcast
9:56 AM - - - N/A% 30.03 in 10.0 mi South 8.1 mph - 0.00 in   Partly Cloudy
10:56 AM 82.9 °F 88.8 °F 73.0 °F 72% 30.02 in 10.0 mi South 9.2 mph - N/A   Partly Cloudy
11:56 AM 84.0 °F 91.2 °F 73.9 °F 72% 30.01 in 10.0 mi South 10.4 mph - N/A   Clear
12:56 PM 82.9 °F 90.8 °F 75.9 °F 79% 29.98 in 10.0 mi South 8.1 mph - N/A   Clear
1:56 PM 82.9 °F 90.8 °F 75.9 °F 79% 29.96 in 10.0 mi SSW 10.4 mph - N/A   Clear
2:56 PM 82.0 °F 87.9 °F 73.9 °F 76% 29.96 in 10.0 mi SW 6.9 mph - N/A   Clear
3:56 PM 82.0 °F 87.9 °F 73.9 °F 76% 29.96 in 10.0 mi WSW 5.8 mph - N/A   Clear
4:56 PM 81.0 °F 86.7 °F 75.0 °F 82% 29.97 in 10.0 mi NNW 6.9 mph - N/A   Scattered Clouds
5:56 PM - - - N/A% 29.98 in 10.0 mi West 3.5 mph - N/A   Clear
6:56 PM - - - N/A% 29.99 in 10.0 mi Calm Calm - N/A   Partly Cloudy
7:56 PM - - - N/A% 30.02 in 10.0 mi East 3.5 mph - 0.01 in   Clear
8:56 PM - - - N/A% 30.04 in 10.0 mi Calm Calm - N/A   Partly Cloudy
9:56 PM - - - N/A% 30.04 in 10.0 mi Calm Calm - N/A   Clear
10:56 PM - - - N/A% 30.04 in 10.0 mi Calm Calm - N/A   Clear
11:56 PM - - - N/A% 30.03 in 10.0 mi ENE 3.5 mph - N/A   Clear